RH
4 3 2 2 2 2 2 2 2 3 4 5 5 6 8 9 7 7 9 10 9 10 11 16 19 39 100 100 99 77 64 90 100 100 74 56 46 68 71 72 84 90 55 71 71
4 3 3 3 3 3 2 2 2 2 2 4 5 6 7 9 8 6 9 11 10 10 12 16 28 44 82 100 100 83 76 96 100 100 98 58 40 61 68 69 81 79 71 72 69
4 3 3 3 3 2 2 2 2 2 2 2 4 5 6 9 9 9 8 11 10 10 12 13 53 30 72 100 100 99 81 100 100 100 100 86 42 56 74 76 77 78 68 71 79
4 3 2 2 2 2 2 2 2 2 2 2 2 4 6 7 11 10 9 10 9 9 11 13 14 64 55 95 100 100 100 100 100 100 100 100 51 67 72 84 77 69 61 83 83
3 2 2 2 2 2 2 2 2 2 2 2 2 2 4 7 10 11 10 8 8 10 11 12 14 20 51 96 100 100 100 93 99 100 100 100 88 52 66 69 79 78 96 88 86
3 2 2 2 2 2 2 1 1 2 1 2 2 2 3 5 6 10 10 8 8 11 10 12 13 13 25 53 90 100 100 78 78 100 100 100 100 63 56 63 81 95 96 91 91
3 2 2 2 2 2 2 2 1 1 1 1 2 2 2 3 5 10 11 9 8 11 11 11 12 12 15 28 70 100 86 82 61 100 100 100 100 100 59 61 74 91 95 98 97
3 2 2 2 2 2 2 1 1 1 1 1 1 2 2 3 4 8 9 11 9 10 13 11 11 11 12 18 30 77 85 81 82 97 100 100 100 100 94 62 70 77 88 92 96
3 2 2 3 2 2 2 2 1 1 1 1 2 1 2 2 4 6 10 12 10 10 11 12 11 12 12 12 14 29 63 81 100 100 100 100 100 100 99 97 72 82 77 75 77
2 2 3 3 3 2 2 2 2 1 1 1 1 2 2 2 3 4 9 10 15 10 11 11 12 12 10 10 12 14 47 84 100 100 100 100 100 100 100 94 100 100 100 98 76
3 3 3 3 3 3 2 2 2 2 1 1 1 2 2 2 3 4 8 10 15 13 12 11 11 11 13 12 12 12 30 66 100 100 100 100 100 100 100 100 100 99 100 100 100
3 4 3 3 3 3 3 3 2 2 2 2 1 2 2 2 3 4 6 9 16 22 12 12 13 13 11 10 9 10 13 50 93 100 100 100 99 100 100 100 100 100 100 100 100
3 4 3 3 3 4 3 3 3 2 2 2 2 2 2 2 3 3 5 8 14 27 14 15 16 16 11 10 10 9 11 19 64 100 100 100 95 91 99 100 100 100 100 100 100
4 5 4 4 4 4 4 4 4 3 3 3 2 3 2 3 3 5 6 8 9 16 14 17 14 15 12 11 10 10 11 14 35 100 100 100 100 92 96 100 100 100 100 100 100
5 5 5 5 5 4 4 4 4 6 4 3 3 4 3 4 4 5 7 9 11 12 14 16 11 12 12 12 12 11 10 13 86 100 100 100 100 100 94 100 100 100 100 100 100
7 6 6 6 6 6 5 5 4 8 7 5 5 5 6 5 6 6 7 9 10 11 14 18 19 20 18 13 12 12 11 12 25 74 99 100 100 100 100 100 100 100 100 100 100
10 6 7 7 7 7 7 6 6 10 10 8 8 7 8 8 8 8 8 10 12 14 14 14 16 19 21 18 13 12 11 11 13 51 84 100 100 100 99 100 100 100 100 100 100
26 12 7 8 8 8 8 7 8 8 11 11 13 13 13 11 11 12 11 10 12 14 15 16 15 15 18 20 15 13 12 11 11 14 61 100 100 100 100 100 100 100 100 100 100
43 22 12 9 9 8 8 8 8 9 10 13 14 20 19 17 16 17 17 17 17 17 19 21 20 19 18 17 15 14 13 13 13 13 16 47 99 100 100 100 100 94 100 100 100
32 30 25 10 10 10 9 8 8 9 11 13 15 15 22 24 21 22 23 22 21 18 20 21 23 20 16 16 15 14 14 14 13 14 15 17 34 99 100 100 100 100 93 88 94
52 56 34 26 10 11 10 9 9 8 10 12 21 18 17 22 27 28 29 28 27 25 25 23 21 22 20 17 15 17 16 16 16 15 15 15 16 28 100 100 100 100 100 100 99
34 40 40 39 11 11 10 9 9 9 9 12 12 21 19 18 22 23 26 30 31 32 35 31 29 29 28 29 26 24 24 21 20 18 17 15 16 18 50 100 100 100 100 100 100
56 84 51 32 25 12 11 10 9 9 9 10 12 12 21 22 18 23 24 28 30 30 34 36 33 35 33 34 33 29 27 26 24 22 19 16 16 17 18 26 75 100 100 100 100
36 58 52 44 31 11 12 10 9 8 9 10 12 12 15 27 26 23 21 25 27 29 31 35 32 35 35 31 36 35 28 26 25 24 21 19 20 19 18 20 24 28 40 67 77
76 54 69 52 34 9 10 11 9 8 9 9 12 15 14 18 31 30 28 30 31 30 34 40 44 46 42 33 34 35 35 34 31 26 26 22 23 23 23 22 24 23 29 40 50
31 46 35 24 17 10 9 10 10 8 8 9 10 12 16 16 26 40 36 32 32 39 41 34 28 33 44 39 33 33 33 43 46 40 36 25 26 29 26 27 32 38 42 43 48
47 50 34 37 18 10 8 9 10 9 7 8 10 10 13 16 18 31 41 37 37 37 38 43 37 35 35 37 45 52 34 35 38 45 45 62 38 39 29 28 32 42 54 64 69
Wind_Speed
85 83 79 74 70 66 61 60 56 49 47 48 47 50 51 55 57 58 63 71 77 90 98 106 111 118 120 115 111 110 102 94 90 88 86 88 87 87 83 80 76 77 66 65 66
86 82 78 75 71 68 66 63 59 57 49 48 48 50 52 58 59 58 66 74 79 90 97 107 113 118 121 118 115 111 102 90 88 90 92 93 90 90 84 82 80 76 74 72 69
87 83 77 74 68 66 64 61 59 56 52 48 49 52 54 58 60 66 68 77 82 89 97 107 116 118 120 122 119 112 103 96 96 100 98 95 89 87 87 85 84 80 77 73 71
88 83 77 74 68 65 62 58 52 48 47 46 45 49 57 61 67 68 74 79 83 88 96 106 115 121 120 120 119 116 108 105 106 100 100 96 90 96 92 91 88 81 73 76 75
89 83 77 75 69 65 61 51 42 38 36 37 39 44 54 64 71 75 79 80 81 86 92 103 113 120 121 123 124 119 113 111 107 98 98 97 95 99 94 91 86 82 81 82 77
91 86 81 80 74 70 64 51 42 35 32 28 30 37 47 64 73 76 79 79 83 86 91 98 110 118 123 125 125 124 119 116 109 100 99 101 102 100 96 89 86 87 87 83 79
93 89 83 84 79 76 69 53 45 37 31 24 24 32 40 59 68 77 83 80 82 85 90 96 106 114 120 121 126 126 123 119 111 104 103 104 103 93 99 92 90 91 89 86 84
92 89 85 86 82 79 71 58 49 42 32 23 20 29 38 45 59 77 82 82 80 85 89 95 101 109 115 121 122 127 125 122 114 109 108 105 101 98 100 98 94 93 91 89 86
93 88 85 84 83 81 72 63 53 45 35 23 17 23 36 47 57 72 82 84 83 87 90 93 95 103 111 117 119 122 126 123 117 113 112 107 102 103 100 98 96 93 93 91 90
96 90 88 85 83 82 77 68 57 47 34 22 13 17 29 36 46 60 78 83 86 86 89 91 93 98 105 110 114 113 122 121 119 116 113 109 105 103 100 98 97 96 93 91 92
96 93 87 86 82 82 78 69 57 43 31 21 9 11 22 31 42 54 72 82 85 84 86 87 92 92 98 108 112 115 122 123 125 121 118 113 111 104 100 98 98 97 95 93 90
95 94 89 88 85 84 80 73 59 44 36 22 8 4 17 29 39 53 66 72 82 88 87 87 89 92 96 100 105 109 113 123 127 122 120 117 112 109 102 98 99 98 94 93 92
97 95 92 90 88 84 81 76 63 51 43 31 16 10 7 19 31 41 53 67 78 94 92 88 89 90 91 92 96 102 107 117 122 123 121 121 116 110 104 103 100 97 96 93 88
96 96 94 92 90 85 82 79 68 59 47 34 24 16 10 6 24 35 42 52 65 85 82 90 87 88 84 85 88 95 101 110 117 124 124 122 118 115 110 105 103 101 98 94 92
95 93 92 92 93 89 83 79 72 64 52 37 29 22 12 10 14 30 41 49 60 69 75 84 81 79 73 75 81 90 96 104 115 122 125 121 119 116 111 108 105 102 99 98 97
97 93 91 90 92 90 84 78 73 67 50 43 31 23 16 9 16 23 35 44 50 56 64 71 74 75 75 76 77 83 90 99 112 121 122 123 120 118 114 112 109 105 102 100 98
97 92 88 88 88 87 82 76 73 64 55 42 37 27 17 11 7 13 26 33 43 46 50 56 60 65 71 71 75 74 81 92 102 114 118 120 122 117 116 112 111 110 106 103 102
100 95 87 83 83 82 79 74 68 61 54 43 35 31 22 14 6 4 11 23 34 41 46 49 52 56 61 67 65 67 75 82 92 100 113 121 119 119 116 116 114 110 110 108 105
99 98 92 84 82 78 74 68 62 58 53 44 33 28 24 16 9 4 3 11 19 29 37 43 48 51 55 59 60 62 68 75 84 95 103 112 119 119 118 117 117 116 113 111 110
96 98 96 86 80 78 74 67 59 53 49 46 36 22 18 17 12 8 1 6 12 17 22 29 36 40 46 52 55 58 65 70 76 86 94 104 111 116 118 117 118 116 115 115 114
99 100 96 92 78 74 71 65 58 52 47 41 36 29 15 11 8 4 1 3 7 9 13 19 23 27 34 39 42 48 55 61 69 76 86 94 99 106 113 117 115 114 114 113 114
88 94 97 96 80 73 69 63 59 52 46 40 35 28 20 10 6 4 2 6 8 8 11 15 17 21 26 30 35 40 48 55 61 68 76 83 90 99 106 112 113 112 108 108 109
91 97 93 91 89 71 68 61 56 50 45 39 35 31 24 16 7 2 4 5 8 11 14 16 18 21 24 27 31 36 43 48 54 61 69 75 79 87 94 100 105 106 107 106 102
84 94 92 91 85 68 66 63 54 50 43 39 35 31 27 21 14 9 2 7 10 11 13 15 17 20 24 30 32 35 38 43 49 55 61 64 71 78 83 87 90 95 99 99 101
97 99 97 98 88 68 62 60 56 48 43 38 32 29 27 23 18 14 11 8 8 11 14 19 21 24 26 27 31 34 37 40 45 51 53 58 63 66 72 77 82 86 88 92 94
78 95 88 84 78 66 59 57 54 51 42 39 32 27 24 22 20 18 17 15 13 12 13 17 22 26 28 29 30 32 36 39 41 45 47 51 55 60 64 70 71 73 76 78 81
96 102 92 91 83 69 60 54 52 49 46 37 34 28 24 22 20 19 18 17 17 17 18 19 19 23 29 31 32 33 33 34 38 41 44 45 50 54 57 59 62 66 68 70 73
Wind_Direction
336 334 332 330 329 324 318 313 305 294 282 272 261 251 243 236 229 221 215 215 211 210 210 209 211 211 209 211 211 211 210 210 215 218 218 218 218 219 221 221 221 223 222 221 226
337 337 336 335 331 326 321 314 305 296 282 267 257 249 239 234 229 221 215 214 212 210 208 206 212 211 210 210 212 213 210 211 214 221 221 220 218 220 219 222 222 223 222 222 227
340 339 338 335 333 330 323 313 304 295 285 270 253 241 236 231 227 222 215 214 211 210 209 208 210 212 212 210 212 212 209 211 213 216 220 221 218 221 221 222 223 224 223 225 228
342 341 340 338 336 335 326 317 307 295 284 272 257 239 229 228 223 220 218 216 211 210 208 208 210 212 212 212 212 211 211 210 213 213 219 222 220 221 222 222 224 225 225 227 230
343 343 344 341 341 340 334 327 316 307 291 272 259 241 226 219 222 218 217 215 212 211 209 208 211 212 213 213 212 212 211 211 212 214 219 222 222 222 221 224 225 226 227 228 230
345 346 348 345 348 346 344 338 331 320 304 281 255 242 226 218 219 218 218 215 212 210 210 209 210 212 214 213 213 212 211 212 210 213 218 221 223 224 222 223 226 227 229 231 231
347 349 351 350 352 351 349 347 342 335 316 291 257 238 229 218 215 214 218 214 212 210 211 209 210 213 213 215 213 213 212 212 210 212 218 221 224 223 225 223 226 228 230 232 233
351 351 354 354 355 355 353 353 350 342 329 305 266 236 225 217 212 211 218 214 213 211 211 212 211 211 213 215 215 213 213 211 210 212 218 221 223 223 225 225 225 228 230 233 235
351 355 356 357 358 358 357 359 355 345 337 318 276 236 216 209 208 206 211 214 211 212 212 213 212 212 213 214 217 213 214 211 212 213 218 220 222 223 224 225 227 228 231 233 236
353 357 358 1 2 1 1 2 359 351 344 329 290 231 212 210 207 202 208 213 210 213 214 212 213 214 213 215 216 217 214 212 214 215 218 220 221 223 225 225 229 230 231 233 236
355 357 0 1 5 6 5 6 360 356 354 348 311 219 201 197 198 198 202 209 213 212 216 215 215 214 215 216 216 215 214 213 214 215 218 220 220 222 225 225 228 231 233 236 237
356 358 360 2 5 9 8 10 8 10 13 12 20 189 189 186 193 196 199 203 208 210 217 218 216 216 216 215 215 216 215 214 214 216 218 220 222 221 224 227 229 231 234 236 239
357 359 360 3 5 10 9 12 14 18 20 23 35 91 151 183 189 199 198 199 201 208 215 218 220 219 218 218 217 217 216 216 214 218 221 221 222 223 223 227 230 231 233 237 239
358 360 1 3 4 9 11 12 16 21 21 29 45 62 101 156 185 184 192 200 203 209 214 217 219 221 219 219 218 217 218 217 215 218 222 223 224 223 224 226 229 232 233 236 238
358 360 2 3 4 6 10 13 16 21 21 24 35 44 65 120 173 189 187 192 202 209 216 218 223 223 222 221 220 219 218 219 217 219 222 225 227 227 225 227 231 232 235 237 239
355 358 1 3 4 3 8 11 14 20 19 25 34 46 58 105 162 184 194 196 205 209 212 218 224 225 224 222 220 220 218 219 217 221 221 225 227 229 230 229 231 234 235 237 240
353 356 360 2 3 3 3 7 13 15 15 24 35 40 52 63 139 189 197 199 202 210 217 218 218 220 224 225 222 221 221 220 219 221 222 225 228 230 233 233 234 235 236 239 241
356 354 358 1 2 2 1 5 9 10 13 19 34 34 39 41 48 190 205 209 208 207 212 218 219 220 221 224 225 221 223 221 221 222 224 225 228 230 233 236 237 237 239 240 241
2 357 356 357 359 1 0 1 5 5 9 14 24 41 31 33 54 54 199 209 207 211 212 216 218 220 221 223 225 223 223 222 222 222 224 226 228 230 232 236 239 239 240 241 243
359 1 358 355 356 357 358 357 360 4 5 6 12 30 45 33 30 43 128 215 217 215 216 218 221 225 224 225 224 223 223 224 224 224 225 227 227 229 232 234 238 242 244 245 245
3 3 360 355 352 354 354 353 354 359 2 4 1 2 29 57 51 40 319 233 229 214 221 224 226 226 228 231 226 225 227 226 227 226 227 228 229 230 232 234 237 240 244 247 249
0 359 0 356 349 350 351 350 350 352 358 357 358 358 358 19 66 63 161 208 224 217 223 225 216 220 223 225 224 221 221 224 225 227 228 229 230 231 232 234 236 239 242 246 249
1 358 356 354 351 345 347 348 347 347 350 353 352 352 353 347 353 84 161 185 217 209 209 217 220 218 215 215 217 219 218 219 224 226 228 229 229 231 233 235 237 239 241 243 247
354 354 355 351 347 343 342 343 344 342 344 347 346 346 346 339 334 317 229 199 201 214 213 219 223 224 221 213 212 217 219 218 220 224 226 228 229 232 232 233 235 238 240 243 246
354 349 351 349 347 341 339 339 338 340 339 340 342 339 338 334 326 314 297 265 233 218 218 225 223 227 228 224 216 213 213 219 222 223 224 224 226 228 232 233 234 237 239 241 245
348 349 347 344 339 337 337 334 334 333 336 334 336 335 331 326 319 309 299 282 260 245 239 230 221 217 224 229 227 220 217 215 218 221 224 226 225 229 230 232 235 236 238 241 244
346 349 346 343 338 332 333 331 330 329 329 330 328 330 326 322 315 306 292 280 267 257 244 237 232 228 227 225 227 230 228 225 220 221 223 224 225 229 230 232 233 235 238 241 245